| time (UTC) | temp C | wind direction | speed KPH | gust KPH | rain 1hr cm | rain 24hr cm | rain mn cm | humidity % | barometer mb |
| 20260504120138 | 21 | 90 | 0.0 | 0.0 | 0.00 | 13.56 | 0.15 | 80 | 1014.3 |
| 20260504110546 | 21 | 90 | 0.0 | 0.0 | 0.00 | 13.56 | 0.15 | 79 | 1014.1 |
| 20260504100530 | 20 | 90 | 0.0 | 0.0 | 0.00 | 13.56 | 0.15 | 80 | 1014.3 |
| 20260504100302 | 20 | 90 | 0.0 | 0.0 | 0.03 | 13.56 | 0.15 | 79 | 1014.4 |
| 20260504081742 | 20 | 90 | 0.0 | 0.0 | 0.03 | 13.54 | 0.13 | 76 | 1014.9 |
| 20260504081013 | 20 | 90 | 0.0 | 0.0 | 0.03 | 13.54 | 0.13 | 76 | 1015.0 |
| 20260504080513 | 20 | 90 | 0.0 | 0.0 | 0.03 | 13.54 | 0.13 | 75 | 1015.2 |
| 20260504050529 | 20 | 90 | 0.0 | 0.0 | 0.03 | 13.41 | 0.00 | 75 | 1017.6 |
| 20260504045754 | 20 | 90 | 0.0 | 0.0 | 0.03 | 13.41 | 13.92 | 75 | 1017.7 |
| 20260504045518 | 20 | 90 | 0.0 | 0.0 | 0.03 | 13.41 | 13.92 | 75 | 1017.8 |
| 20260504045015 | 20 | 90 | 0.0 | 0.0 | 0.03 | 13.41 | 13.92 | 75 | 1017.7 |
| 20260504044506 | 20 | 90 | 0.0 | 0.0 | 0.03 | 13.41 | 13.92 | 75 | 1017.7 |
| 20260504043729 | 20 | 90 | 0.0 | 0.0 | 0.03 | 13.41 | 13.92 | 75 | 1017.9 |
| 20260504043224 | 20 | 90 | 0.0 | 0.0 | 0.03 | 13.41 | 13.92 | 75 | 1017.8 |
| 20260504042717 | 20 | 90 | 0.0 | 0.0 | 0.03 | 13.41 | 13.92 | 75 | 1017.9 |
| 20260504042211 | 20 | 90 | 0.0 | 0.0 | 0.03 | 13.41 | 13.92 | 75 | 1017.9 |
| 20260504041705 | 20 | 90 | 0.0 | 0.0 | 0.03 | 13.41 | 13.92 | 74 | 1017.8 |
| 20260504041200 | 20 | 90 | 0.0 | 0.0 | 0.00 | 13.39 | 13.89 | 74 | 1017.8 |
| 20260504040653 | 20 | 90 | 0.0 | 0.0 | 0.00 | 13.39 | 13.89 | 74 | 1017.8 |
| 20260504040148 | 20 | 90 | 0.0 | 0.0 | 0.00 | 13.39 | 13.89 | 74 | 1017.9 |
| 20260504035641 | 20 | 90 | 0.0 | 0.0 | 0.00 | 13.39 | 13.89 | 74 | 1017.8 |
| 20260504035136 | 20 | 90 | 0.0 | 0.0 | 0.00 | 13.39 | 13.89 | 74 | 1017.7 |
| 20260504034629 | 20 | 90 | 0.0 | 0.0 | 0.00 | 13.39 | 13.89 | 74 | 1017.8 |
| 20260504034124 | 20 | 90 | 0.0 | 0.0 | 0.00 | 13.39 | 13.89 | 74 | 1017.9 |
| 20260504033848 | 20 | 90 | 0.0 | 0.0 | 0.00 | 13.39 | 13.89 | 74 | 1017.9 |
| 20260504033112 | 20 | 90 | 0.0 | 0.0 | 0.00 | 13.39 | 13.89 | 74 | 1017.8 |
| 20260504032605 | 20 | 90 | 0.0 | 0.0 | 0.00 | 13.39 | 13.89 | 74 | 1017.8 |
| 20260504032059 | 20 | 90 | 0.0 | 0.0 | 0.00 | 13.39 | 13.89 | 74 | 1017.8 |
| 20260504031555 | 20 | 90 | 0.0 | 0.0 | 0.05 | 13.39 | 13.89 | 73 | 1017.8 |
| 20260504031048 | 20 | 90 | 0.0 | 0.0 | 0.05 | 13.39 | 13.89 | 73 | 1017.8 |
| 20260504030542 | 20 | 90 | 0.0 | 0.0 | 0.05 | 13.39 | 13.89 | 73 | 1017.6 |
| 20260504030035 | 20 | 90 | 0.0 | 0.0 | 0.08 | 13.39 | 13.89 | 73 | 1017.5 |
| 20260504025529 | 20 | 90 | 0.0 | 0.0 | 0.08 | 13.39 | 13.89 | 73 | 1017.5 |
| 20260504025023 | 20 | 90 | 0.0 | 0.0 | 0.08 | 13.39 | 13.89 | 73 | 1017.5 |
| 20260504024520 | 20 | 90 | 0.0 | 0.0 | 0.10 | 13.39 | 13.89 | 73 | 1017.5 |
| 20260504024014 | 20 | 90 | 0.0 | 0.0 | 0.10 | 13.39 | 13.89 | 74 | 1017.5 |
| 20260504023514 | 20 | 90 | 0.0 | 0.0 | 0.10 | 13.39 | 13.89 | 74 | 1017.4 |
| 20260504023014 | 20 | 90 | 0.0 | 0.0 | 0.15 | 13.39 | 13.89 | 73 | 1017.4 |
| 20260504022514 | 20 | 90 | 0.0 | 0.0 | 0.18 | 13.39 | 13.89 | 73 | 1017.4 |
| 20260504022013 | 20 | 90 | 0.0 | 0.0 | 0.23 | 13.39 | 13.89 | 72 | 1017.4 |
| 20260504021514 | 20 | 90 | 0.0 | 0.0 | 0.20 | 13.34 | 13.84 | 73 | 1017.4 |
| 20260504021012 | 20 | 90 | 0.0 | 0.0 | 0.23 | 13.34 | 13.84 | 72 | 1017.5 |
| 20260504020515 | 20 | 90 | 0.0 | 0.0 | 0.25 | 13.31 | 13.84 | 73 | 1017.4 |
| 20260504020012 | 20 | 90 | 0.0 | 0.0 | 0.28 | 13.31 | 13.82 | 73 | 1017.4 |
| 20260504015512 | 20 | 90 | 0.0 | 0.0 | 0.28 | 13.31 | 13.82 | 72 | 1017.4 |
| 20260504015011 | 21 | 90 | 0.0 | 0.0 | 0.30 | 13.31 | 13.82 | 72 | 1017.4 |
| 20260504014510 | 21 | 90 | 0.0 | 0.0 | 0.28 | 13.28 | 13.79 | 72 | 1017.3 |
| 20260504014012 | 21 | 90 | 0.0 | 0.0 | 0.30 | 13.28 | 13.79 | 71 | 1017.3 |
| 20260504013511 | 21 | 90 | 0.0 | 0.0 | 0.48 | 13.28 | 13.79 | 71 | 1017.3 |
| 20260504013009 | 21 | 90 | 0.0 | 0.0 | 0.53 | 13.23 | 13.74 | 70 | 1017.3 |
| 20260504012508 | 21 | 90 | 0.0 | 0.0 | 0.61 | 13.21 | 13.72 | 70 | 1017.4 |
| 20260504012008 | 21 | 90 | 0.0 | 0.0 | 0.66 | 13.16 | 13.67 | 70 | 1017.2 |
| 20260504011508 | 21 | 90 | 0.0 | 0.0 | 0.74 | 13.13 | 13.64 | 69 | 1017.4 |
| 20260504011021 | 21 | 90 | 0.0 | 0.0 | 0.79 | 13.11 | 13.61 | 68 | 1017.3 |
| 20260504010508 | 21 | 90 | 0.0 | 0.0 | 0.76 | 13.06 | 13.56 | 68 | 1017.4 |
| 20260504010010 | 21 | 90 | 0.0 | 0.0 | 0.79 | 13.03 | 13.54 | 67 | 1017.4 |
| 20260504005509 | 21 | 90 | 0.0 | 0.0 | 0.99 | 13.03 | 13.54 | 67 | 1017.4 |
| 20260504005010 | 22 | 90 | 0.0 | 0.0 | 1.02 | 13.00 | 13.51 | 67 | 1017.4 |
| 20260504004506 | 22 | 90 | 0.0 | 0.0 | 1.12 | 13.00 | 13.51 | 66 | 1017.4 |
| 20260504004004 | 22 | 90 | 0.0 | 0.0 | 1.22 | 12.98 | 13.51 | 66 | 1017.5 |
| 20260504003507 | 22 | 90 | 0.0 | 0.0 | 1.22 | 12.80 | 13.41 | 64 | 1017.5 |
| 20260504003005 | 22 | 90 | 0.0 | 0.0 | 1.12 | 12.70 | 13.21 | 63 | 1017.4 |
| 20260504002505 | 22 | 90 | 0.0 | 0.0 | 1.04 | 12.60 | 13.11 | 64 | 1017.5 |
| 20260504002005 | 22 | 90 | 0.0 | 0.0 | 1.35 | 12.50 | 13.00 | 63 | 1017.4 |
| 20260504001505 | 22 | 90 | 0.0 | 0.0 | 1.32 | 12.40 | 12.90 | 63 | 1017.3 |
| 20260504001005 | 22 | 90 | 0.0 | 0.0 | 1.24 | 12.32 | 12.83 | 62 | 1017.5 |
| 20260504000736 | 22 | 90 | 0.0 | 0.0 | 1.27 | 12.24 | 12.75 | 62 | 1017.6 |
| 20260504000241 | 23 | 90 | 0.0 | 0.0 | 1.32 | 12.24 | 12.75 | 61 | 1017.6 |
| 20260503235505 | 23 | 90 | 0.0 | 0.0 | 1.40 | 12.04 | 12.57 | 62 | 1017.5 |
| 20260503235009 | 23 | 90 | 0.0 | 0.0 | 1.42 | 11.99 | 12.50 | 62 | 1017.6 |
| 20260503234736 | 23 | 90 | 0.0 | 0.0 | 1.37 | 11.89 | 12.42 | 61 | 1017.5 |
| 20260503234004 | 23 | 90 | 0.0 | 0.0 | 1.32 | 11.76 | 12.29 | 61 | 1017.5 |
| 20260503233501 | 23 | 90 | 0.0 | 0.0 | 1.35 | 11.58 | 12.09 | 61 | 1017.5 |
| 20260503232959 | 23 | 90 | 0.0 | 0.0 | 1.42 | 11.58 | 12.09 | 59 | 1017.5 |
| 20260503232456 | 23 | 90 | 0.0 | 0.0 | 1.83 | 11.48 | 12.04 | 60 | 1017.6 |
| 20260503231958 | 23 | 90 | 0.0 | 0.0 | 1.60 | 11.15 | 11.66 | 61 | 1017.6 |
| 20260503231455 | 23 | 90 | 0.0 | 0.0 | 1.63 | 11.07 | 11.58 | 62 | 1017.8 |
| 20260503230952 | 23 | 90 | 0.0 | 0.0 | 1.63 | 11.02 | 11.58 | 60 | 1017.8 |
| 20260503230453 | 23 | 90 | 0.0 | 0.0 | 1.73 | 10.97 | 11.48 | 59 | 1017.8 |
| 20260503225950 | 23 | 90 | 0.0 | 0.0 | 1.83 | 10.92 | 11.43 | 58 | 1017.8 |
| 20260503225450 | 23 | 90 | 0.0 | 0.0 | 1.60 | 10.62 | 11.13 | 60 | 1017.8 |
| 20260503224944 | 23 | 90 | 0.0 | 0.0 | 1.60 | 10.57 | 11.07 | 59 | 1017.8 |
| 20260503224439 | 23 | 90 | 0.0 | 0.0 | 1.68 | 10.52 | 11.02 | 59 | 1017.9 |
| 20260503223933 | 24 | 90 | 0.0 | 0.0 | 1.63 | 10.44 | 10.95 | 57 | 1017.9 |
| 20260503223426 | 24 | 90 | 0.0 | 0.0 | 1.75 | 10.24 | 10.74 | 58 | 1018.0 |
| 20260503223152 | 24 | 90 | 0.0 | 0.0 | 1.68 | 10.11 | 10.67 | 57 | 1018.0 |
| 20260503222645 | 24 | 90 | 0.0 | 0.0 | 1.42 | 9.65 | 10.16 | 58 | 1018.0 |
| 20260503221909 | 24 | 90 | 0.0 | 0.0 | 1.47 | 9.55 | 10.06 | 59 | 1018.0 |
| 20260503221403 | 24 | 90 | 0.0 | 0.0 | 1.40 | 9.45 | 9.96 | 59 | 1018.1 |
| 20260503220352 | 24 | 90 | 0.0 | 0.0 | 1.35 | 9.22 | 9.73 | 59 | 1018.4 |
| 20260503220116 | 24 | 90 | 0.0 | 0.0 | 1.32 | 9.09 | 9.60 | 58 | 1018.4 |
| 20260503215339 | 24 | 90 | 0.0 | 0.0 | 1.37 | 9.02 | 9.53 | 58 | 1018.5 |
| 20260503215103 | 24 | 90 | 0.0 | 0.0 | 1.35 | 8.97 | 9.47 | 58 | 1018.5 |
| 20260503214327 | 24 | 90 | 0.0 | 0.0 | 1.27 | 8.84 | 9.35 | 60 | 1018.6 |
| 20260503214052 | 24 | 90 | 0.0 | 0.0 | 1.30 | 8.81 | 9.32 | 60 | 1018.5 |
| 20260503213314 | 24 | 90 | 0.0 | 0.0 | 1.02 | 8.46 | 8.99 | 60 | 1018.6 |
| 20260503212809 | 24 | 90 | 0.0 | 0.0 | 0.99 | 8.31 | 8.81 | 59 | 1018.8 |
| 20260503212304 | 25 | 90 | 0.0 | 0.0 | 1.12 | 8.23 | 8.74 | 59 | 1018.9 |
| 20260503211757 | 25 | 90 | 0.0 | 0.0 | 1.09 | 8.05 | 8.59 | 58 | 1018.9 |
| 20260503211251 | 25 | 90 | 0.0 | 0.0 | 1.24 | 8.03 | 8.56 | 59 | 1019.0 |
| 20260503210745 | 25 | 90 | 0.0 | 0.0 | 1.22 | 7.95 | 8.46 | 59 | 1019.1 |
| 20260503210238 | 25 | 90 | 0.0 | 0.0 | 1.60 | 7.87 | 8.38 | 58 | 1019.1 |
| 20260503205733 | 25 | 90 | 0.0 | 0.0 | 1.57 | 7.75 | 8.28 | 57 | 1019.2 |
| 20260503205226 | 26 | 90 | 0.0 | 0.0 | 1.65 | 7.65 | 8.15 | 55 | 1019.2 |
| 20260503204721 | 26 | 90 | 0.0 | 0.0 | 1.65 | 7.59 | 8.13 | 56 | 1019.3 |
| 20260503204214 | 26 | 90 | 0.0 | 0.0 | 1.65 | 7.52 | 8.03 | 57 | 1019.4 |
| 20260503203709 | 26 | 90 | 0.0 | 0.0 | 1.78 | 7.52 | 8.03 | 56 | 1019.5 |
| 20260503203202 | 26 | 90 | 0.0 | 0.0 | 1.88 | 7.42 | 7.92 | 55 | 1019.5 |
| 20260503202927 | 26 | 90 | 0.0 | 0.0 | 1.78 | 7.24 | 7.75 | 58 | 1019.6 |
| 20260503202150 | 26 | 90 | 0.0 | 0.0 | 1.85 | 7.04 | 7.54 | 57 | 1019.5 |
| 20260503201645 | 26 | 90 | 0.0 | 0.0 | 1.96 | 6.91 | 7.47 | 56 | 1019.6 |
| 20260503201138 | 27 | 90 | 0.0 | 0.0 | 2.21 | 6.78 | 7.29 | 55 | 1019.8 |
| 20260503200633 | 27 | 90 | 0.0 | 0.0 | 2.49 | 6.58 | 7.16 | 55 | 1019.7 |
| 20260503200139 | 27 | 90 | 0.0 | 0.0 | 2.51 | 6.27 | 6.78 | 54 | 1019.8 |
| 20260503195621 | 27 | 90 | 0.0 | 0.0 | 2.41 | 6.02 | 6.53 | 52 | 1020.0 |
| 20260503195115 | 27 | 90 | 0.0 | 0.0 | 2.59 | 5.99 | 6.50 | 52 | 1020.0 |
| 20260503194609 | 28 | 90 | 0.0 | 0.0 | 2.57 | 5.92 | 6.45 | 51 | 1020.1 |
| 20260503194103 | 28 | 90 | 0.0 | 0.0 | 2.67 | 5.84 | 6.35 | 50 | 1020.1 |
| 20260503193556 | 28 | 90 | 0.0 | 0.0 | 2.79 | 5.74 | 6.25 | 51 | 1020.1 |
| 20260503193051 | 28 | 90 | 0.0 | 0.0 | 2.67 | 5.54 | 6.05 | 50 | 1020.3 |
| 20260503192545 | 28 | 90 | 0.0 | 0.0 | 2.51 | 5.36 | 5.92 | 47 | 1020.3 |
| 20260503192038 | 28 | 90 | 0.0 | 0.0 | 2.31 | 5.13 | 5.64 | 49 | 1020.2 |
| 20260503191804 | 28 | 90 | 0.0 | 0.0 | 2.21 | 4.85 | 5.44 | 50 | 1020.2 |
| 20260503191026 | 28 | 90 | 0.0 | 0.0 | 2.01 | 4.45 | 5.08 | 48 | 1020.4 |
| 20260503190522 | 28 | 90 | 0.0 | 0.0 | 1.75 | 4.04 | 4.55 | 47 | 1020.5 |
| 20260503190017 | 28 | 90 | 0.0 | 0.0 | 1.55 | 3.76 | 4.27 | 47 | 1020.5 |
| 20260503185509 | 28 | 90 | 0.0 | 0.0 | 1.35 | 3.56 | 4.09 | 48 | 1020.6 |
| 20260503185003 | 28 | 90 | 0.0 | 0.0 | 1.19 | 3.40 | 3.91 | 49 | 1020.6 |
| 20260503184456 | 28 | 90 | 0.0 | 0.0 | 1.17 | 3.28 | 3.86 | 47 | 1020.6 |
| 20260503183950 | 29 | 90 | 0.0 | 0.0 | 1.22 | 3.15 | 3.66 | 49 | 1020.7 |
| 20260503183451 | 29 | 90 | 0.0 | 0.0 | 1.42 | 2.90 | 3.40 | 50 | 1020.9 |
| 20260503182947 | 29 | 90 | 0.0 | 0.0 | 1.57 | 2.87 | 3.38 | 48 | 1021.0 |
| 20260503181945 | 28 | 90 | 0.0 | 0.0 | 1.73 | 2.82 | 3.33 | 49 | 1021.1 |
| 20260503181443 | 29 | 90 | 0.0 | 0.0 | 1.55 | 2.62 | 3.12 | 48 | 1021.2 |
| 20260503180940 | 29 | 90 | 0.0 | 0.0 | 1.42 | 2.44 | 2.95 | 49 | 1021.2 |
| 20260503180437 | 29 | 90 | 0.0 | 0.0 | 1.35 | 2.29 | 2.79 | 46 | 1021.3 |
| 20260503175938 | 29 | 90 | 0.0 | 0.0 | 1.42 | 2.21 | 2.72 | 45 | 1021.3 |
| 20260503175437 | 28 | 90 | 0.0 | 0.0 | 1.47 | 2.21 | 2.72 | 46 | 1021.4 |
| 20260503174936 | 28 | 90 | 0.0 | 0.0 | 1.55 | 2.21 | 2.72 | 45 | 1021.5 |
| 20260503174433 | 28 | 90 | 0.0 | 0.0 | 1.45 | 2.11 | 2.62 | 46 | 1021.5 |
| 20260503173934 | 28 | 90 | 0.0 | 0.0 | 1.24 | 1.91 | 2.41 | 46 | 1021.6 |
| 20260503173431 | 28 | 90 | 0.0 | 0.0 | 0.86 | 1.47 | 1.98 | 46 | 1021.7 |
| 20260503172932 | 28 | 90 | 0.0 | 0.0 | 0.76 | 1.30 | 1.80 | 42 | 1021.8 |
| 20260503172703 | 28 | 90 | 0.0 | 0.0 | 0.89 | 1.30 | 1.80 | 45 | 1021.9 |
| 20260503171929 | 28 | 90 | 0.0 | 0.0 | 0.91 | 1.09 | 1.60 | 48 | 1022.0 |
| 20260503171429 | 28 | 90 | 0.0 | 0.0 | 1.04 | 1.07 | 1.57 | 42 | 1022.0 |
| 20260503170931 | 28 | 90 | 0.0 | 0.0 | 1.02 | 1.02 | 1.52 | 44 | 1022.1 |
| 20260503170429 | 28 | 90 | 0.0 | 0.0 | 0.94 | 0.94 | 1.45 | 41 | 1022.1 |
| 20260503150744 | 26 | 90 | 0.0 | 0.0 | 0.08 | 2.69 | 0.08 | 58 | 1022.1 |
| 20260503150238 | 26 | 90 | 0.0 | 0.0 | 0.08 | 2.69 | 0.08 | 59 | 1022.1 |
| 20260503140126 | 22 | 90 | 0.0 | 0.0 | 0.00 | 2.62 | 0.00 | 74 | 1021.5 |
| 20260503131026 | 18 | 90 | 0.0 | 0.0 | 0.00 | 2.62 | 0.00 | 82 | 1021.5 |
| 20260503130750 | 17 | 90 | 0.0 | 0.0 | 0.00 | 2.62 | 0.00 | 83 | 1021.3 |